Regional Weather Roundup
Issued by NWS

Home | Current Version | Previous Version | Text Only | Print | Product List | Glossary On
Versions: 1 2 3 4 5 6 7 8 9 10 11 12 13 14 15 16 17 18 19 20 21 22 23 24 25 26 27
000
ASUS45 KREV 200410
RWRNV
NEVADA REGIONAL WEATHER ROUNDUP
NATIONAL WEATHER SERVICE RENO NV
800 PM PST SUN FEB 19 2017

NOTE: "FAIR" INDICATES FEW OR NO CLOUDS BELOW 12,000 FEET WITH NO
SIGNIFICANT WEATHER AND/OR OBSTRUCTIONS TO VISIBILITY.

NVZ001-003-004-200500-
WESTERN NEVADA

CITY           SKY/WX    TMP DP  RH WIND       PRES   REMARKS
RENO           MOCLDY    45  33  63 N9        29.82R
MINDEN         MOCLDY    45  34  65 SE18G24   29.85R
PYRAMID LAKE     N/A     50 N/A N/A SW31        N/A
FALLON         MOCLDY    51  29  42 S5        29.81R
LOVELOCK       CLOUDY    49  33  54 SW17      29.79R
HAWTHORNE      PTCLDY    50  28  43 S13       29.82R
$$

NVZ002-CAZ072-073-200500-
NORTHERN AND CENTRAL SIERRA

CITY           SKY/WX    TMP DP  RH WIND       PRES   REMARKS
S. LAKE TAHOE  LGT RAIN  38  34  85 VRB5      29.87R
TRUCKEE        LGT RAIN  36  32  87 SW12      29.86R
SQUAW VLY 8000   N/A     30  30 100 S8          N/A
MAMMOTH LAKES  FAIR      34  29  85 S3        29.95R
BRIDGEPORT     LGT RAIN  37  30  75 W9        29.88R
$$

NVZ030-031-036-200500-
NORTHERN NEVADA

CITY           SKY/WX    TMP DP  RH WIND       PRES   REMARKS
ELKO           MOCLDY    38  28  67 SE3       29.81R
WINNEMUCCA     CLOUDY    45  35  68 NW5       29.78R
WENDOVER       PTCLDY    39  28  65 SW7       29.84R
$$

NVZ035-037-200500-
CENTRAL NEVADA

CITY           SKY/WX    TMP DP  RH WIND       PRES   REMARKS
ELY            MOCLDY    38  30  73 S13       29.91R
EUREKA           N/A     41  30  65 S9        29.86R
$$

NVZ013-014-200500-
SOUTH CENTRAL NEVADA

CITY           SKY/WX    TMP DP  RH WIND       PRES   REMARKS
TONOPAH        CLOUDY    42  37  82 S12       29.95R
$$

NVZ017-020-022-200500-
SOUTHERN NEVADA

CITY           SKY/WX    TMP DP  RH WIND       PRES   REMARKS
LAS VEGAS      PTCLDY    56  40  55 S6        29.95R
N. LAS VEGAS   PTCLDY    53  43  68 SE7       29.95R
NELLIS AFB     PTCLDY    55  46  71 E8        29.96R
HENDERSON      PTCLDY    51  42  71 S9        29.99R
MERCURY        CLOUDY    50  40  68 N6        29.96R
$$




USA.gov is the U.S. government's official web portal to all federal, state and local government web resources and services.